,

(GMT )
Al Udeid

Weather History for KQIR - May, 2013

Change the Weather History Date:

Wednesday, May 22, 2013

  Actual Average Record
Temperature  
Mean Temperature 97 °F -  
Max Temperature 112 °F - - ()
Min Temperature 82 °F - - ()
Cooling Degree Days 32    
Growing Degree Days 47 (Base 50)    
Moisture  
Dew Point 54 °F    
Average Humidity 32    
Maximum Humidity 65    
Minimum Humidity 7    
Precipitation  
Precipitation 0.00 in - - ()
Sea Level Pressure  
Sea Level Pressure 29.69 in    
Wind  
Wind Speed 9 mph ()    
Max Wind Speed 15 mph    
Max Gust Speed -    
Visibility 6.2 miles    
Events      
T = Trace of Precipitation, MM = Missing Value Source: Averaged Metar Reports

Daily Weather History Graph

Daily Weather History Graph

Search for Another Location

Airport or City:

Trip Planner

Search our weather history database for the weather conditions in past years. The results will help you decide how hot, cold, wet, or windy it might be!

Date:

Astronomy

May. 22, 2013 Rise Set
Actual Time 4:47 AM AST 6:15 PM AST
Civil Twilight 4:21 AM AST 6:41 PM AST
Nautical Twilight 3:52 AM AST 7:11 PM AST
Astronomical Twilight 3:20 AM AST 7:42 PM AST
Moon 3:26 PM AST (5/22) 2:17 AM AST (5/22)
Length of Visible Light 14h 19m
Length of Day
13h 28m
Waxing Gibbous, 89% of the Moon is Illuminated
May 22
Waxing Gibbous
May 25
Full
May 31
Last Quarter
Jun 8
New
Jun 16
First Quarter

Hourly Weather History & Observations

Time (AST) Temp. Heat Index Dew Point Humidity Pressure Visibility Wind Dir Wind Speed Gust Speed Precip Events Conditions
12:55 AM 84.2 °F 88.7 °F 70.5 °F 63% 29.67 in 6.2 mi SSE 11.5 mph - N/A   Clear
1:55 AM 83.1 °F 87.3 °F 70.3 °F 65% 29.66 in 6.2 mi South 8.1 mph - N/A   Clear
2:55 AM 83.1 °F 86.3 °F 68.2 °F 61% 29.66 in 6.2 mi SSE 6.9 mph - N/A   Clear
3:55 AM 82.9 °F 85.2 °F 66.4 °F 57% 29.67 in 6.2 mi SSE 8.1 mph - N/A   Clear
4:55 AM 82.4 °F 83.2 °F 61.9 °F 50% 29.68 in 6.2 mi South 6.9 mph - N/A   Clear
5:55 AM 82.6 °F 82.3 °F 58.1 °F 43% 29.69 in 6.2 mi South 8.1 mph - N/A   Clear
6:55 AM 87.8 °F - 49.5 °F 27% 29.71 in 6.2 mi South 8.1 mph - N/A   Clear
7:55 AM 94.3 °F - 43.9 °F 18% 29.73 in 6.2 mi South 13.8 mph - N/A   Clear
8:55 AM 100.4 °F - 39.7 °F 12% 29.73 in 6.2 mi South 13.8 mph - N/A   Clear
9:55 AM 105.3 °F - 36.3 °F 9% 29.73 in 6.2 mi South 13.8 mph - N/A   Partly Cloudy
10:55 AM 108.1 °F - 35.6 °F 8% 29.73 in 6.2 mi SW 15.0 mph - N/A   Mostly Cloudy
11:55 AM 110.3 °F - 33.8 °F 7% 29.72 in 6.2 mi West 12.7 mph - N/A   Overcast
12:55 PM 111.0 °F - 34.5 °F 7% 29.70 in 6.2 mi WSW 12.7 mph - N/A   Mostly Cloudy
1:55 PM 111.6 °F - 34.9 °F 7% 29.68 in 6.2 mi SW 11.5 mph - N/A   Partly Cloudy
2:55 PM 112.3 °F - 35.2 °F 7% 29.66 in 6.2 mi Variable 5.8 mph - N/A   Clear
3:55 PM 106.7 °F - 52.3 °F 16% 29.65 in 6.2 mi East 11.5 mph - N/A   Clear
4:55 PM 102.4 °F 101.6 °F 57.2 °F 22% 29.66 in 6.2 mi East 15.0 mph - N/A   Clear
5:55 PM 96.1 °F 99.9 °F 66.4 °F 38% 29.66 in 6.2 mi East 11.5 mph - N/A   Clear
6:55 PM 92.1 °F 95.3 °F 66.9 °F 43% 29.68 in 6.2 mi East 11.5 mph - N/A   Clear
7:55 PM 91.2 °F 93.3 °F 65.5 °F 42% 29.70 in 6.2 mi East 5.8 mph - N/A   Clear
8:55 PM 91.2 °F 90.5 °F 59.5 °F 34% 29.73 in 6.2 mi NW 9.2 mph - N/A   Clear
9:55 PM 89.2 °F 88.4 °F 59.0 °F 36% 29.73 in 6.2 mi NW 5.8 mph - N/A   Clear
10:55 PM 89.4 °F 91.2 °F 64.6 °F 44% 29.73 in 6.2 mi North 6.9 mph - N/A   Clear
11:55 PM 87.1 °F 89.9 °F 66.7 °F 51% 29.72 in 6.2 mi NNW 9.2 mph - N/A   Clear